{"data":{"norad_id":58820,"intl_designator":"2024-016A","name":"2024-016A","alt_names":[],"object_type":"PAYLOAD","status":"ACTIVE","operator":null,"country":"PRC","launch_date":"2024-01-23","launch_site_code":"JSC","launch_vehicle":null,"mission":null,"orbit_class":"UNKNOWN","rcs_meters":null,"size_class":null,"mass_kg":null,"dimensions":null,"purposes":[],"wikipedia_slug":null,"has_3d_model":false,"image_url":null,"decayed_at":null,"tle_current":{"epoch":"2026-05-25T05:01:54.153984Z","epoch_age_seconds":67631,"freshness":"FRESH","line1":"1 58820U 24016A   26145.20965456  .00033137  00000+0  52410-3 0  9992","line2":"2 58820  97.4475 239.6042 0007878 134.0176 226.1727 15.53362231130506","mean_motion":15.53362231,"eccentricity":0.0007878,"inclination_deg":97.4475,"raan_deg":239.6042,"arg_perigee_deg":134.0176,"mean_anomaly_deg":226.1727,"bstar":0.0005241,"rev_number":13050,"period_min":92.702138062992,"perigee_km":401.57233812122,"apogee_km":412.2628701555,"semimajor_km":6785.0546041384,"source":"CELESTRAK","updated_at":"2026-05-25T13:38:01.003081Z"}}}